CW7222 Weather Reports


time (UTC)temp
C
wind
direction
speed
KPH
gust
KPH
rain 1hr
cm
rain 24hr
cm
rain mn
cm
humidity
%
barometer
mb
20260504173349 17 157 0.0 0.0 0.30 1.30 0.23 91 1008.8
20260504172334 17 157 0.0 3.2 0.30 1.30 0.23 91 1008.7
20260504170333 17 157 0.0 3.2 0.41 1.19 0.20 91 1008.8
20260504160338 17 165 3.2 8.0 0.30 0.71 0.10 91 1009.4
20260504150334 17 193 4.8 12.9 0.10 0.41 0.05 90 1009.5
20260504140349 18 242 4.8 9.7 0.00 0.20 0.00 89 1010.0
20260504130342 18 190 0.0 11.3 0.00 0.20 0.00 88 1010.2
20260504110346 19 193 0.0 1.6 0.00 0.20 0.00 80 1010.6
20260504100343 19 140 6.4 16.1 0.00 0.20 0.00 82 1010.5
20260504081335 18 174 4.8 9.7 0.00 0.20 0.00 76 1010.5
20260504080347 18 207 0.0 0.0 0.00 0.20 0.00 78 1010.5
20260504050342 16 311 0.0 0.0 0.00 0.20 0.00 89 1011.0
20260504045350 16 308 0.0 0.0 0.00 0.20 0.00 89 1010.9
20260504042336 16 309 0.0 0.0 0.00 0.20 0.00 88 1011.1
20260504041345 16 309 0.0 0.0 0.00 0.20 0.00 88 1011.2
20260504035340 16 309 0.0 0.0 0.00 0.20 0.00 89 1011.4
20260504034349 16 309 0.0 0.0 0.00 0.20 0.00 89 1011.5
20260504033336 16 309 0.0 0.0 0.00 0.20 0.00 88 1011.5
20260504032345 16 309 0.0 0.0 0.00 0.20 0.00 88 1011.6
20260504031337 16 309 0.0 0.0 0.00 0.20 0.00 88 1011.4
20260504030347 16 309 0.0 0.0 0.00 0.20 0.00 88 1011.4
20260504025331 16 309 0.0 0.0 0.00 0.20 0.00 88 1011.4
20260504024339 16 309 0.0 0.0 0.00 0.20 0.00 88 1011.4
20260504023347 16 308 0.0 0.0 0.00 0.20 0.00 88 1011.4
20260504022331 16 308 0.0 0.0 0.00 0.20 0.00 89 1011.4
20260504021342 16 308 0.0 0.0 0.00 0.20 0.00 89 1011.4
20260504020340 15 308 0.0 0.0 0.00 0.20 0.00 89 1011.4
20260504015347 15 308 0.0 0.0 0.00 0.20 0.00 89 1011.5
20260504014333 15 308 0.0 0.0 0.00 0.20 0.00 89 1011.6
20260504013344 15 308 0.0 0.0 0.00 0.20 0.00 89 1011.6
20260504012332 15 309 0.0 0.0 0.00 0.20 0.00 89 1011.9
20260504005341 15 312 0.0 0.0 0.00 0.20 0.00 90 1012.0
20260504004349 15 313 0.0 0.0 0.00 0.20 0.00 90 1012.1
20260504003333 15 312 0.0 0.0 0.00 0.20 0.00 89 1012.1
20260504002342 15 312 0.0 0.0 0.00 0.20 0.00 90 1012.1
20260504001331 15 316 0.0 0.0 0.00 0.20 0.00 90 1012.2
20260503235349 15 318 0.0 0.0 0.00 0.20 0.00 89 1012.4
20260503234335 16 36 0.0 0.0 0.00 0.20 0.00 90 1012.4
20260503233343 16 39 0.0 0.0 0.00 0.20 0.00 90 1012.4
20260503232333 16 44 0.0 0.0 0.00 0.20 0.00 90 1012.5
20260503231341 16 44 0.0 0.0 0.00 0.20 0.00 91 1012.5
20260503230350 16 44 0.0 0.0 0.00 0.20 0.00 91 1012.5
20260503225337 16 45 0.0 0.0 0.00 0.20 0.00 91 1012.7
20260503224346 16 46 0.0 0.0 0.00 0.20 0.00 91 1012.7
20260503223331 16 46 0.0 0.0 0.00 0.20 0.00 91 1012.7
20260503222339 16 46 0.0 0.0 0.00 0.20 0.00 91 1012.6
20260503220338 16 49 0.0 0.0 0.00 0.20 0.00 91 1012.6
20260503214335 16 51 0.0 0.0 0.00 0.20 0.05 92 1013.0
20260503212338 16 52 0.0 0.0 0.00 0.20 0.05 91 1013.0
20260503211347 16 53 0.0 0.0 0.10 0.20 0.05 91 1013.0
20260503210331 16 52 0.0 0.0 0.10 0.20 0.05 91 1013.0
20260503205340 16 96 0.0 0.0 0.10 0.20 0.05 91 1013.2
20260503204350 16 97 0.0 0.0 0.10 0.20 0.05 91 1013.2
20260503203334 16 97 0.0 0.0 0.20 0.20 0.05 91 1013.2
20260503202347 16 102 0.0 0.0 0.20 0.20 0.05 90 1013.0
20260503200349 16 94 0.0 0.0 0.10 0.10 0.03 90 1013.0
20260503194344 16 75 0.0 0.0 0.10 0.10 0.03 87 1012.5
20260503193350 16 59 0.0 0.0 0.00 0.00 0.00 86 1012.5
20260503192342 17 34 0.0 0.0 0.00 0.00 0.00 84 1012.8
20260503191350 17 18 0.0 0.0 0.00 0.00 0.00 83 1012.7
20260503190337 17 19 0.0 0.0 0.00 0.00 0.00 83 1012.7
20260503184336 17 22 0.0 0.0 0.00 0.00 0.00 82 1012.5
20260503183346 17 22 0.0 0.0 0.00 0.00 0.00 82 1012.5
20260503182337 17 22 0.0 0.0 0.00 0.00 0.00 82 1012.5
20260503181345 17 5 0.0 0.0 0.00 0.00 0.00 82 1012.5
20260503180351 17 23 0.0 0.0 0.00 0.00 0.00 83 1012.5
20260503175336 17 23 0.0 0.0 0.00 0.00 0.00 83 1012.4
20260503174345 16 9 0.0 0.0 0.00 0.00 0.00 84 1012.4